User: anonymous   Login
Location: Unspecified
(0.0000°N, 0.0000°E)
Time: 02:41:56
(UTC+00:00)
Language:

KANOPUS-V 4 - Orbit

View from above orbital plane
View from above orbital plane
View from above satellite
View from above satellite

Ground track
Ground track

The orbit data is extracted from the following two-line orbital elements,

1 43181U 18014B   18324.82262397  .00000038  00000-0  50218-5 0  9990
2 43181  97.4499 231.1265 0001775  74.5318  11.6939 15.18928305 44446
Epoch (UTC): 20 November 2018 19:44:34
Eccentricity: 0.0001775
inclination: 97.4499°
perigee height: 508 km
apogee height: 510 km
right ascension of ascending node: 231.1265°
argument of perigee: 74.5318°
revolutions per day: 15.18928305
mean anomaly at epoch: 11.6939°
orbit number at epoch: 4444

The dashed part of the orbit path shows where the satellite is in the earth's shadow,  

DLR